• In Netherlands
  • List of Countries
  • For 7 days
  • Water Temperature
  • Satellite Maps
  • Weather Map
  • Weather Widgets
  • user-avatar
    Login

    Hourly Weather Río Gallegos

    Today, 20 January, Friday

    Time Temperature Precipitation Wind Pressure Humidity
    00:00 +13°C° 0 mm 2 mps 748 mmHg 77%
    01:00 +12°C° 0 mm 2 mps 748 mmHg 79%
    02:00 +11°C° 0 mm 3 mps 748 mmHg 79%
    03:00 +11°C° 0 mm 4 mps 749 mmHg 79%
    04:00 +10°C° 0 mm 5 mps 749 mmHg 79%
    05:00 +12°C° 0 mm 4 mps 749 mmHg 75%
    06:00 +13°C° 0 mm 3 mps 750 mmHg 70%
    07:00 +14°C° 0 mm 3 mps 750 mmHg 66%
    08:00 +16°C° 0 mm 3 mps 750 mmHg 62%
    09:00 +17°C° 0 mm 4 mps 750 mmHg 58%
    10:00 +18°C° 0 mm 4 mps 750 mmHg 54%
    11:00 +18°C° 0.1 mm 4 mps 750 mmHg 53%
    12:00 +18°C° 0.1 mm 4 mps 750 mmHg 53%
    13:00 +18°C° 0.1 mm 4 mps 750 mmHg 52%
    14:00 +18°C° 0.3 mm 3 mps 750 mmHg 57%
    15:00 +17°C° 0.3 mm 3 mps 750 mmHg 61%
    16:00 +17°C° 0.3 mm 2 mps 749 mmHg 66%
    17:00 +16°C° 0.4 mm 2 mps 750 mmHg 69%
    18:00 +16°C° 0.4 mm 2 mps 750 mmHg 73%
    19:00 +15°C° 0.4 mm 2 mps 751 mmHg 76%
    20:00 +13°C° 0.6 mm 3 mps 751 mmHg 74%
    21:00 +12°C° 0.6 mm 4 mps 752 mmHg 72%
    22:00 +10°C° 0.6 mm 5 mps 752 mmHg 71%
    23:00 +10°C° 0 mm 5 mps 753 mmHg 71%

    Tomorrow, 21 January, Saturday

    Time Temperature Precipitation Wind Pressure Humidity
    00:00 +9°C° 0 mm 6 mps 753 mmHg 71%
    01:00 +8°C° 0 mm 6 mps 754 mmHg 72%
    02:00 +8°C° 0 mm 7 mps 754 mmHg 71%
    03:00 +6°C° 0 mm 7 mps 755 mmHg 71%
    04:00 +6°C° 0 mm 7 mps 755 mmHg 71%
    05:00 +7°C° 0 mm 8 mps 755 mmHg 66%
    06:00 +8°C° 0 mm 9 mps 755 mmHg 60%
    07:00 +11°C° 0 mm 9 mps 756 mmHg 55%
    08:00 +12°C° 0 mm 9 mps 756 mmHg 51%
    09:00 +13°C° 0 mm 9 mps 756 mmHg 46%
    10:00 +16°C° 0 mm 9 mps 756 mmHg 42%
    11:00 +17°C° 0 mm 9 mps 755 mmHg 40%
    12:00 +17°C° 0 mm 8 mps 755 mmHg 38%
    13:00 +18°C° 0 mm 8 mps 755 mmHg 36%
    14:00 +18°C° 0 mm 8 mps 755 mmHg 36%
    15:00 +18°C° 0 mm 8 mps 754 mmHg 35%
    16:00 +18°C° 0 mm 8 mps 754 mmHg 35%
    17:00 +17°C° 0.1 mm 7 mps 754 mmHg 41%
    18:00 +16°C° 0.1 mm 6 mps 755 mmHg 46%
    19:00 +14°C° 0.1 mm 6 mps 755 mmHg 52%
    20:00 +13°C° 0.1 mm 6 mps 755 mmHg 56%
    21:00 +12°C° 0.1 mm 5 mps 756 mmHg 59%
    22:00 +10°C° 0.1 mm 5 mps 756 mmHg 63%
    23:00 +10°C° 0 mm 5 mps 756 mmHg 65%

    Day after tomorrow, 22 January, Sunday

    Time Temperature Precipitation Wind Pressure Humidity
    00:00 +9°C° 0 mm 6 mps 757 mmHg 67%
    01:00 +9°C° 0 mm 6 mps 757 mmHg 69%
    02:00 +8°C° 0 mm 5 mps 757 mmHg 70%
    03:00 +8°C° 0 mm 5 mps 757 mmHg 70%
    04:00 +8°C° 0 mm 5 mps 757 mmHg 70%
    05:00 +9°C° 0 mm 5 mps 757 mmHg 67%
    06:00 +10°C° 0 mm 5 mps 757 mmHg 64%
    07:00 +12°C° 0 mm 5 mps 757 mmHg 60%
    08:00 +14°C° 0 mm 6 mps 757 mmHg 55%
    09:00 +16°C° 0 mm 7 mps 756 mmHg 50%
    10:00 +17°C° 0 mm 9 mps 756 mmHg 45%
    11:00 +18°C° 0 mm 8 mps 755 mmHg 42%
    12:00 +20°C° 0 mm 8 mps 754 mmHg 40%
    13:00 +21°C° 0 mm 7 mps 753 mmHg 37%
    14:00 +20°C° 0.1 mm 7 mps 752 mmHg 40%
    15:00 +20°C° 0.1 mm 6 mps 751 mmHg 44%
    16:00 +19°C° 0.1 mm 6 mps 751 mmHg 48%
    17:00 +17°C° 0.1 mm 5 mps 750 mmHg 53%
    18:00 +17°C° 0.1 mm 4 mps 749 mmHg 59%
    19:00 +17°C° 0.1 mm 3 mps 748 mmHg 64%
    20:00 +17°C° 0 mm 3 mps 747 mmHg 62%
    21:00 +15°C° 0 mm 4 mps 746 mmHg 59%
    22:00 +15°C° 0 mm 5 mps 746 mmHg 56%
    23:00 +15°C° 0 mm 5 mps 745 mmHg 56%

    23 January, Monday

    Time Temperature Precipitation Wind Pressure Humidity
    00:00 +15°C° 0 mm 6 mps 745 mmHg 56%
    01:00 +15°C° 0 mm 7 mps 744 mmHg 56%
    02:00 +13°C° 0 mm 8 mps 745 mmHg 60%
    03:00 +12°C° 0 mm 9 mps 745 mmHg 64%
    04:00 +11°C° 0 mm 10 mps 745 mmHg 67%
    05:00 +11°C° 0 mm 10 mps 746 mmHg 65%
    06:00 +11°C° 0 mm 10 mps 747 mmHg 63%
    07:00 +11°C° 0 mm 10 mps 747 mmHg 60%
    08:00 +11°C° 0.2 mm 11 mps 748 mmHg 56%
    09:00 +12°C° 0.2 mm 12 mps 748 mmHg 51%
    10:00 +12°C° 0.2 mm 13 mps 748 mmHg 47%
    11:00 +12°C° 0.1 mm 13 mps 749 mmHg 46%
    12:00 +13°C° 0.1 mm 13 mps 749 mmHg 45%
    13:00 +13°C° 0.1 mm 13 mps 750 mmHg 44%
    14:00 +13°C° 0.1 mm 12 mps 750 mmHg 45%
    15:00 +12°C° 0.1 mm 12 mps 751 mmHg 46%
    16:00 +12°C° 0.1 mm 12 mps 751 mmHg 47%
    17:00 +11°C° 0 mm 11 mps 752 mmHg 49%
    18:00 +9°C° 0 mm 11 mps 753 mmHg 51%
    19:00 +8°C° 0 mm 10 mps 754 mmHg 53%
    20:00 +8°C° 0 mm 9 mps 754 mmHg 56%
    21:00 +7°C° 0 mm 8 mps 755 mmHg 58%
    22:00 +6°C° 0 mm 8 mps 756 mmHg 61%
    23:00 +5°C° 0 mm 7 mps 756 mmHg 63%

    24 January, Tuesday

    Time Temperature Precipitation Wind Pressure Humidity
    00:00 +5°C° 0 mm 7 mps 757 mmHg 65%
    01:00 +4°C° 0 mm 7 mps 757 mmHg 67%
    02:00 +4°C° 0 mm 6 mps 758 mmHg 69%
    03:00 +4°C° 0 mm 6 mps 758 mmHg 71%
    04:00 +3°C° 0 mm 5 mps 758 mmHg 72%
    05:00 +5°C° 0 mm 5 mps 759 mmHg 68%
    06:00 +6°C° 0 mm 5 mps 759 mmHg 63%
    07:00 +7°C° 0 mm 4 mps 759 mmHg 59%
    08:00 +9°C° 0 mm 3 mps 759 mmHg 55%
    09:00 +10°C° 0 mm 2 mps 759 mmHg 51%
    10:00 +12°C° 0 mm 1 mps 758 mmHg 46%
    11:00 +13°C° 0 mm 2 mps 758 mmHg 45%
    12:00 +13°C° 0 mm 3 mps 757 mmHg 44%
    13:00 +14°C° 0 mm 4 mps 756 mmHg 43%
    14:00 +14°C° 0 mm 5 mps 756 mmHg 45%
    15:00 +14°C° 0 mm 6 mps 755 mmHg 47%
    16:00 +12°C° 0 mm 7 mps 754 mmHg 50%
    17:00 +11°C° 0.2 mm 8 mps 754 mmHg 55%
    18:00 +10°C° 0.2 mm 8 mps 754 mmHg 61%
    19:00 +9°C° 0.2 mm 8 mps 753 mmHg 66%
    20:00 +8°C° 0.7 mm 9 mps 753 mmHg 72%
    21:00 +7°C° 0.7 mm 9 mps 753 mmHg 77%
    22:00 +7°C° 0.7 mm 9 mps 753 mmHg 83%
    23:00 +7°C° 0.2 mm 8 mps 753 mmHg 84%

    25 January, Wednesday

    Time Temperature Precipitation Wind Pressure Humidity
    00:00 +9°C° 0.2 mm 7 mps 752 mmHg 86%
    01:00 +9°C° 0.2 mm 6 mps 752 mmHg 87%
    02:00 +9°C° 0 mm 5 mps 752 mmHg 89%
    03:00 +10°C° 0 mm 4 mps 751 mmHg 91%
    04:00 +10°C° 0 mm 4 mps 751 mmHg 93%
    05:00 +10°C° 0 mm 3 mps 751 mmHg 90%
    06:00 +11°C° 0 mm 3 mps 751 mmHg 87%
    07:00 +12°C° 0 mm 3 mps 751 mmHg 85%
    08:00 +12°C° 0 mm 4 mps 751 mmHg 80%
    09:00 +13°C° 0 mm 4 mps 751 mmHg 76%
    10:00 +14°C° 0 mm 4 mps 750 mmHg 71%
    11:00 +14°C° 0 mm 4 mps 750 mmHg 70%
    12:00 +15°C° 0 mm 4 mps 750 mmHg 68%
    13:00 +15°C° 0 mm 4 mps 750 mmHg 66%
    14:00 +15°C° 0 mm 4 mps 750 mmHg 66%
    15:00 +15°C° 0 mm 4 mps 750 mmHg 65%
    16:00 +15°C° 0 mm 4 mps 750 mmHg 65%
    17:00 +15°C° 0 mm 4 mps 750 mmHg 69%
    18:00 +14°C° 0 mm 4 mps 751 mmHg 74%
    19:00 +13°C° 0 mm 4 mps 751 mmHg 79%
    20:00 +12°C° 0 mm 3 mps 751 mmHg 82%
    21:00 +11°C° 0 mm 3 mps 752 mmHg 85%
    22:00 +11°C° 0 mm 3 mps 752 mmHg 88%
    23:00 +11°C° 0 mm 3 mps 752 mmHg 86%
    Show more